Simultaneous Nadir Overpasses (SNOs) Predictions

Prediction of SNOs between GOES-17 and NOAA-19 Satellite Orbit:

Table of predicted SNOs for the next 14.0 days since TLE Epoch: 8/10/2024
Index Date Time (GOES-17) GOES-17 Lat,Lon NOAA-19 Lat,Lon Distance(km) Time Diff (sec)
1 08/10/2024 04:29:28 0.01,-104.69 0.00,-106.64 216.61 80
2 08/11/2024 04:14:21 0.01,-104.69 0.24,-103.54 131.01 80
3 08/12/2024 04:02:01 0.01,-104.69 0.96,-100.55 473.13 80
4 08/13/2024 16:36:14 -0.00,-104.73 0.76,-108.12 387.53 80
5 08/14/2024 16:23:54 -0.00,-104.72 0.09,-105.12 45.41 80
6 08/15/2024 16:08:53 -0.01,-104.72 -0.59,-102.12 296.62 80
7 08/18/2024 04:31:02 0.01,-104.68 -0.50,-106.76 237.62 80
8 08/19/2024 04:16:03 0.01,-104.68 0.25,-103.77 104.37 80
9 08/20/2024 04:03:42 0.02,-104.68 0.94,-100.77 446.37 80
10 08/21/2024 16:37:54 -0.01,-104.71 0.79,-108.34 413.71 80
11 08/22/2024 16:25:32 -0.01,-104.71 0.15,-105.33 71.36 80
12 08/23/2024 16:10:32 -0.02,-104.71 -0.56,-102.33 271.06 80
